| time (UTC) | temp F | wind direction | speed knots | gust knots | rain 1hr in | rain 24hr in | rain mn in | humidity % | barometer mb |
| 20260831074532 | 47 | 158 | 0.0 | 2.6 | 0.00 | 0.00 | 0.00 | 82 | 1018.6 |
| 20260831073032 | 49 | 157 | 0.0 | 2.6 | 0.00 | 0.00 | 0.00 | 80 | 1018.6 |
| 20260831070026 | 51 | 150 | 2.6 | 4.3 | 0.00 | 0.00 | 0.00 | 76 | 1018.8 |
| 20260831064532 | 52 | 148 | 3.5 | 6.1 | 0.00 | 0.00 | 0.00 | 76 | 1018.8 |
| 20260831063030 | 51 | 144 | 3.5 | 6.1 | 0.00 | 0.00 | 0.00 | 77 | 1018.9 |
| 20260831061532 | 50 | 145 | 3.5 | 5.2 | 0.00 | 0.00 | 0.00 | 79 | 1018.9 |
| 20260831060032 | 50 | 160 | 2.6 | 5.2 | 0.00 | 0.00 | 0.00 | 80 | 1019.0 |
| 20260831054531 | 51 | 180 | 0.9 | 2.6 | 0.00 | 0.00 | 0.00 | 76 | 1019.1 |
| 20260831053031 | 53 | 171 | 0.9 | 2.6 | 0.00 | 0.00 | 0.00 | 73 | 1019.3 |
| 20260831051533 | 55 | 177 | 1.7 | 4.3 | 0.00 | 0.00 | 0.00 | 72 | 1019.4 |
| 20260831050031 | 54 | 165 | 2.6 | 6.1 | 0.00 | 0.00 | 0.00 | 72 | 1019.4 |
| 20260831044529 | 54 | 168 | 2.6 | 5.2 | 0.00 | 0.00 | 0.00 | 74 | 1019.5 |
| 20260831043031 | 53 | 169 | 1.7 | 4.3 | 0.00 | 0.00 | 0.00 | 76 | 1019.5 |
| 20260831041532 | 54 | 197 | 1.7 | 2.6 | 0.00 | 0.00 | 0.00 | 74 | 1019.5 |
| 20260831040028 | 55 | 208 | 1.7 | 2.6 | 0.00 | 0.00 | 0.00 | 71 | 1019.5 |
| 20260831034528 | 57 | 189 | 1.7 | 2.6 | 0.00 | 0.00 | 0.00 | 67 | 1019.4 |
| 20260831033030 | 59 | 134 | 0.9 | 2.6 | 0.00 | 0.00 | 0.00 | 62 | 1019.4 |
| 20260831031531 | 61 | 65 | 0.9 | 5.2 | 0.00 | 0.00 | 0.00 | 59 | 1019.3 |
| 20260831030029 | 61 | 348 | 0.9 | 6.1 | 0.00 | 0.00 | 0.00 | 58 | 1019.3 |
| 20260831023105 | 65 | 284 | 2.6 | 7.0 | 0.00 | 0.00 | 0.00 | 51 | 1019.2 |
| 20260831021604 | 66 | 271 | 3.5 | 8.7 | 0.00 | 0.00 | 0.00 | 50 | 1019.2 |
| 20260831004530 | 71 | 267 | 3.5 | 9.6 | 0.00 | 0.00 | 0.00 | 44 | 1019.3 |
| 20260831001604 | 71 | 323 | 2.6 | 7.8 | 0.00 | 0.00 | 0.00 | 44 | 1019.2 |
| 20260831000032 | 71 | 27 | 4.3 | 9.6 | 0.00 | 0.00 | 0.00 | 44 | 1019.2 |
| 20260830234603 | 71 | 350 | 4.3 | 11.3 | 0.00 | 0.00 | 0.00 | 46 | 1019.3 |
| 20260830233030 | 71 | 1 | 5.2 | 10.4 | 0.00 | 0.00 | 0.00 | 45 | 1019.4 |
| 20260830231605 | 72 | 353 | 5.2 | 9.6 | 0.00 | 0.00 | 0.00 | 43 | 1019.5 |
| 20260830230029 | 73 | 311 | 5.2 | 9.6 | 0.00 | 0.00 | 0.00 | 40 | 1019.6 |
| 20260830224607 | 73 | 300 | 4.3 | 9.6 | 0.00 | 0.00 | 0.00 | 41 | 1019.7 |
| 20260830223103 | 73 | 296 | 3.5 | 10.4 | 0.00 | 0.00 | 0.00 | 40 | 1020.0 |
| 20260830221530 | 72 | 308 | 4.3 | 8.7 | 0.00 | 0.00 | 0.00 | 42 | 1020.3 |
| 20260830220032 | 72 | 296 | 4.3 | 11.3 | 0.00 | 0.00 | 0.00 | 42 | 1020.5 |
| 20260830214636 | 71 | 301 | 5.2 | 11.3 | 0.00 | 0.00 | 0.00 | 45 | 1020.6 |
| 20260830213030 | 71 | 348 | 4.3 | 8.7 | 0.00 | 0.00 | 0.00 | 46 | 1020.8 |
| 20260830211526 | 71 | 10 | 4.3 | 9.6 | 0.00 | 0.00 | 0.00 | 47 | 1020.8 |
| 20260830210147 | 71 | 12 | 3.5 | 9.6 | 0.00 | 0.00 | 0.00 | 48 | 1020.8 |
| 20260830204532 | 70 | 21 | 4.3 | 8.7 | 0.00 | 0.00 | 0.00 | 49 | 1021.0 |
| 20260830201531 | 69 | 7 | 3.5 | 7.0 | 0.00 | 0.00 | 0.00 | 48 | 1021.3 |
| 20260830200031 | 70 | 348 | 1.7 | 7.8 | 0.00 | 0.00 | 0.00 | 46 | 1021.3 |
| 20260830194529 | 70 | 268 | 2.6 | 7.0 | 0.00 | 0.00 | 0.00 | 47 | 1021.5 |
| 20260830193107 | 69 | 80 | 2.6 | 6.1 | 0.00 | 0.00 | 0.00 | 48 | 1021.6 |
| 20260830191529 | 68 | 355 | 3.5 | 7.8 | 0.00 | 0.00 | 0.00 | 47 | 1021.7 |
| 20260830190031 | 67 | 20 | 2.6 | 7.0 | 0.00 | 0.00 | 0.00 | 48 | 1021.9 |
| 20260830181606 | 64 | 46 | 2.6 | 7.0 | 0.00 | 0.00 | 0.00 | 53 | 1022.3 |
| 20260830174648 | 62 | 343 | 0.9 | 4.3 | 0.00 | 0.00 | 0.00 | 55 | 1022.4 |
| 20260830173030 | 61 | 343 | 1.7 | 6.1 | 0.00 | 0.00 | 0.00 | 56 | 1022.4 |
| 20260830171529 | 60 | 340 | 0.0 | 2.6 | 0.00 | 0.00 | 0.00 | 58 | 1022.5 |
| 20260830164605 | 58 | 134 | 0.0 | 2.6 | 0.00 | 0.00 | 0.00 | 66 | 1022.9 |
| 20260830163105 | 56 | 109 | 0.9 | 4.3 | 0.00 | 0.00 | 0.00 | 69 | 1023.0 |
| 20260830161542 | 55 | 177 | 0.9 | 2.6 | 0.00 | 0.00 | 0.00 | 74 | 1023.2 |
| 20260830160105 | 53 | 163 | 0.9 | 2.6 | 0.00 | 0.00 | 0.00 | 80 | 1023.3 |
| 20260830154530 | 50 | 175 | 0.9 | 2.6 | 0.00 | 0.00 | 0.00 | 88 | 1023.3 |
| 20260830153029 | 47 | 135 | 0.0 | 3.5 | 0.00 | 0.00 | 0.00 | 91 | 1023.4 |
| 20260830151532 | 45 | 135 | 0.9 | 1.7 | 0.00 | 0.00 | 0.00 | 93 | 1023.3 |
| 20260830150030 | 43 | 185 | 0.0 | 2.6 | 0.00 | 0.00 | 0.00 | 93 | 1023.2 |
| 20260830144528 | 41 | 171 | 1.7 | 4.3 | 0.00 | 0.00 | 0.00 | 92 | 1023.1 |
| 20260830143032 | 40 | 146 | 1.7 | 3.5 | 0.00 | 0.00 | 0.00 | 91 | 1022.9 |
| 20260830141531 | 40 | 135 | 1.7 | 2.6 | 0.00 | 0.00 | 0.00 | 89 | 1022.8 |
| 20260830140034 | 41 | 150 | 0.9 | 1.7 | 0.00 | 0.00 | 0.00 | 88 | 1022.7 |
| 20260830134604 | 42 | 163 | 0.0 | 2.6 | 0.00 | 0.00 | 0.00 | 87 | 1022.7 |
| 20260830133105 | 43 | 175 | 2.6 | 6.1 | 0.00 | 0.00 | 0.00 | 88 | 1022.5 |
| 20260830131528 | 42 | 167 | 3.5 | 7.0 | 0.00 | 0.00 | 0.00 | 88 | 1022.3 |
| 20260830130028 | 42 | 179 | 3.5 | 6.1 | 0.00 | 0.00 | 0.00 | 86 | 1022.4 |
| 20260830123031 | 44 | 187 | 3.5 | 7.8 | 0.00 | 0.00 | 0.00 | 85 | 1022.5 |
| 20260830120109 | 44 | 156 | 3.5 | 6.1 | 0.00 | 0.00 | 0.00 | 85 | 1022.6 |
| 20260830114606 | 44 | 158 | 3.5 | 7.8 | 0.00 | 0.00 | 0.00 | 85 | 1022.6 |
| 20260830113032 | 45 | 163 | 2.6 | 6.1 | 0.00 | 0.00 | 0.00 | 85 | 1022.6 |
| 20260830111530 | 45 | 160 | 3.5 | 7.0 | 0.00 | 0.00 | 0.00 | 85 | 1022.7 |
| 20260830104535 | 45 | 160 | 3.5 | 7.0 | 0.00 | 0.00 | 0.00 | 86 | 1022.6 |
| 20260830103030 | 45 | 162 | 3.5 | 6.1 | 0.00 | 0.00 | 0.00 | 86 | 1022.6 |
| 20260830101531 | 45 | 160 | 3.5 | 5.2 | 0.00 | 0.00 | 0.00 | 87 | 1022.5 |
| 20260830100032 | 45 | 165 | 3.5 | 5.2 | 0.00 | 0.00 | 0.00 | 87 | 1022.6 |
| 20260830094533 | 45 | 164 | 3.5 | 7.0 | 0.00 | 0.00 | 0.00 | 87 | 1022.5 |
| 20260830093032 | 45 | 167 | 3.5 | 6.1 | 0.00 | 0.00 | 0.00 | 87 | 1022.5 |
| 20260830091644 | 44 | 177 | 4.3 | 7.0 | 0.00 | 0.00 | 0.00 | 89 | 1022.6 |
| 20260830090033 | 44 | 169 | 2.6 | 5.2 | 0.00 | 0.00 | 0.00 | 89 | 1022.6 |
| 20260830083029 | 46 | 175 | 2.6 | 5.2 | 0.00 | 0.00 | 0.00 | 88 | 1022.7 |
| 20260830081530 | 45 | 165 | 3.5 | 7.0 | 0.00 | 0.00 | 0.00 | 91 | 1022.6 |